MESAT1

Last updated on Mon Nov 03 2025 00:03:22 GMT+0000 (Coordinated Universal Time)

1 60209U 24125G 25306.10286776 .00027924 00000+0 63302-3 0 9994 2 60209 97.2585 156.5336 0015540 339.1883 20.8730 15.42924466 74334
UTC large
Height (km)
Speed (km/s)
/
Latitude / Longitude
Inclination (degrees)
Orbital Period (minutes)
Azimuth
Elevation
Range (km)
Doppler Factor

Next 0 passes for location: London (51.5072 / 0.1276)

Sorry there are no passes over London.